EUTELSAT 70B

Last updated on Tue Sep 22 2026 00:03:12 GMT+0000 (Coordinated Universal Time)

1 39020U 12069A 26264.57435106 -.00000047 00000+0 00000+0 0 9993 2 39020 0.0650 358.6978 0003694 183.0652 95.9611 1.00271324 50477
UTC large
Height (km)
Speed (km/s)
/
Latitude / Longitude
Inclination (degrees)
Orbital Period (minutes)
Azimuth
Elevation
Range (km)
Doppler Factor

Next 0 passes for location: London (51.5072 / 0.1276)

No passes found over London.
EUTELSAT 70B